TimeCET,TemperatureF,Dew PointF,Humidity,Sea Level PressureIn,VisibilityMPH,Wind Direction,Wind SpeedMPH,Gust SpeedMPH,PrecipitationIn,Events,Conditions,WindDirDegrees,DateUTC
12:00 AM,44.6,41.0,87,29.56,6.2,ESE,10.4,-,N/A,Rain,Light Rain,110,2013-01-19 23:00:00
12:30 AM,44.6,41.0,87,29.56,6.2,ESE,11.5,-,N/A,Rain,Light Rain,110,2013-01-19 23:30:00
1:00 AM,45,41,82,29.58,12,ESE,11.2,,,Rain,Light Rain,110,2013-01-20 00:00:00
1:00 AM,44.6,41.0,87,29.56,6.2,ESE,11.5,-,N/A,Rain,Light Rain,110,2013-01-20 00:00:00
1:30 AM,44.6,42.8,93,29.53,6.2,ESE,11.5,-,N/A,Rain,Light Rain,110,2013-01-20 00:30:00
2:00 AM,46.4,42.8,87,29.56,6.2,ESE,10.4,-,N/A,Rain,Light Rain,110,2013-01-20 01:00:00
2:30 AM,46.4,44.6,93,29.56,6.2,East,9.2,-,N/A,Rain,Light Rain,100,2013-01-20 01:30:00
3:00 AM,46.4,44.6,93,29.56,6.2,ESE,10.4,-,N/A,Rain,Light Rain,110,2013-01-20 02:00:00
3:30 AM,46.4,44.6,93,29.53,6.2,East,9.2,-,N/A,Rain,Light Rain,100,2013-01-20 02:30:00
4:00 AM,48,45,84,29.55,12,ESE,11.2,,,,Partly Cloudy,110,2013-01-20 03:00:00
4:00 AM,48.2,44.6,87,29.53,6.2,ESE,10.4,-,N/A,,Mostly Cloudy,110,2013-01-20 03:00:00
4:30 AM,48.2,44.6,87,29.53,6.2,East,9.2,-,N/A,,Mostly Cloudy,100,2013-01-20 03:30:00
5:00 AM,48.2,44.6,87,29.53,6.2,East,10.4,-,N/A,,Mostly Cloudy,100,2013-01-20 04:00:00
5:30 AM,48.2,46.4,93,29.50,6.2,East,9.2,-,N/A,,Mostly Cloudy,90,2013-01-20 04:30:00
6:00 AM,50.0,46.4,87,29.50,6.2,East,9.2,-,N/A,Rain,Light Rain,100,2013-01-20 05:00:00
6:30 AM,50.0,46.4,87,29.53,6.2,ESE,9.2,-,N/A,Rain,Light Rain,110,2013-01-20 05:30:00
7:00 AM,50,47,86,29.55,12,ESE,6.7,,,Rain,Light Rain,110,2013-01-20 06:00:00
7:00 AM,50.0,46.4,87,29.53,6.2,ESE,6.9,-,N/A,Rain,Light Rain,110,2013-01-20 06:00:00
7:30 AM,50.0,48.2,94,29.53,6.2,ESE,10.4,-,N/A,Rain,Light Rain,110,2013-01-20 06:30:00
8:00 AM,51.8,48.2,88,29.50,6.2,ESE,12.7,-,N/A,,Mostly Cloudy,110,2013-01-20 07:00:00
8:30 AM,51.8,50.0,94,29.50,6.2,ESE,13.8,-,N/A,,Mostly Cloudy,120,2013-01-20 07:30:00
9:00 AM,53.6,50.0,88,29.50,6.2,SE,16.1,-,N/A,,Partly Cloudy,130,2013-01-20 08:00:00
9:30 AM,55.4,51.8,88,29.50,6.2,SE,16.1,-,N/A,,Partly Cloudy,130,2013-01-20 08:30:00
10:00 AM,58,52,75,29.52,12,SE,24.6,,,,Partly Cloudy,140,2013-01-20 09:00:00
10:00 AM,59.0,53.6,82,29.50,6.2,SE,25.3,-,N/A,,Partly Cloudy,140,2013-01-20 09:00:00
10:30 AM,59.0,51.8,77,29.50,6.2,SE,23.0,-,N/A,,Partly Cloudy,140,2013-01-20 09:30:00
11:00 AM,57.2,51.8,82,29.50,6.2,SE,24.2,-,N/A,,Partly Cloudy,140,2013-01-20 10:00:00
11:30 AM,59.0,51.8,77,29.50,6.2,SE,23.0,-,N/A,,Partly Cloudy,140,2013-01-20 10:30:00
12:00 PM,59.0,51.8,77,29.47,6.2,SE,24.2,-,N/A,,Partly Cloudy,140,2013-01-20 11:00:00
12:30 PM,57.2,51.8,82,29.47,6.2,SE,23.0,-,N/A,,Partly Cloudy,140,2013-01-20 11:30:00
1:00 PM,57,53,81,29.49,12,SE,20.1,,,,Partly Cloudy,140,2013-01-20 12:00:00
1:00 PM,57.2,53.6,88,29.47,6.2,SE,19.6,-,N/A,,Partly Cloudy,140,2013-01-20 12:00:00
1:30 PM,57.2,53.6,88,29.47,6.2,SE,20.7,-,N/A,Rain,Light Rain,140,2013-01-20 12:30:00
2:00 PM,57.2,53.6,88,29.44,6.2,SE,21.9,-,N/A,,Partly Cloudy,140,2013-01-20 13:00:00
2:30 PM,57.2,51.8,82,29.47,6.2,SE,20.7,-,N/A,Rain,Light Rain,130,2013-01-20 13:30:00
3:00 PM,57.2,53.6,88,29.47,6.2,SE,17.3,-,N/A,Rain,Light Rain,140,2013-01-20 14:00:00
3:30 PM,57.2,53.6,88,29.47,6.2,SE,16.1,-,N/A,Rain,Light Rain,130,2013-01-20 14:30:00
4:00 PM,56,53,85,29.48,12,SE,15.7,,,Rain,Light Rain,130,2013-01-20 15:00:00
4:00 PM,57.2,51.8,82,29.47,6.2,SE,16.1,-,N/A,Rain,Light Rain,140,2013-01-20 15:00:00
4:30 PM,55.4,51.8,88,29.47,6.2,SE,17.3,-,N/A,Rain,Light Rain,140,2013-01-20 15:30:00
5:00 PM,55.4,53.6,94,29.47,6.2,SE,18.4,-,N/A,Rain,Light Rain,130,2013-01-20 16:00:00
5:30 PM,55.4,53.6,94,29.47,6.2,SE,17.3,-,N/A,Rain,Light Rain,140,2013-01-20 16:30:00
6:00 PM,55.4,53.6,94,29.47,6.2,SE,17.3,-,N/A,Rain,Rain,140,2013-01-20 17:00:00
6:30 PM,55.4,53.6,94,29.47,6.2,SE,18.4,-,N/A,Rain,Rain,140,2013-01-20 17:30:00
7:00 PM,56,53,86,29.49,6,SE,22.4,,,Rain,Light Rain,140,2013-01-20 18:00:00
7:00 PM,55.4,53.6,94,29.47,6.2,SE,23.0,-,N/A,,Overcast,140,2013-01-20 18:00:00
7:30 PM,55.4,53.6,94,29.47,6.2,SE,23.0,-,N/A,,Mostly Cloudy,140,2013-01-20 18:30:00
8:00 PM,55.4,53.6,94,29.47,6.2,SSE,20.7,-,N/A,Rain,Light Rain,150,2013-01-20 19:00:00
8:30 PM,55.4,53.6,94,29.47,6.2,SE,18.4,-,N/A,Rain,Light Rain,140,2013-01-20 19:30:00
9:00 PM,55.4,53.6,94,29.47,6.2,SE,20.7,-,N/A,Rain,Light Rain,140,2013-01-20 20:00:00
9:30 PM,55.4,53.6,94,29.47,6.2,SE,16.1,-,N/A,Rain,Light Rain,140,2013-01-20 20:30:00
10:00 PM,55,53,92,29.50,6,SE,15.7,,,Rain,Light Rain,130,2013-01-20 21:00:00
10:00 PM,55.4,53.6,94,29.47,6.2,SE,17.3,-,N/A,Rain,Light Rain,130,2013-01-20 21:00:00
10:30 PM,55.4,53.6,94,29.47,6.2,SE,17.3,-,N/A,Rain,Light Rain,130,2013-01-20 21:30:00
11:00 PM,55.4,53.6,94,29.47,6.2,SE,19.6,-,N/A,Rain,Light Rain,130,2013-01-20 22:00:00
11:30 PM,55.4,53.6,94,29.47,6.2,SE,19.6,-,N/A,Rain,Light Rain,140,2013-01-20 22:30:00